Year,Month,Day,Hour,Minute,Value (Times are PST for temperature in C)
2017,06,23,00,00,12.50
2017,06,23,00,01,12.50
2017,06,23,00,02,12.50
2017,06,23,00,03,12.50
2017,06,23,00,04,12.50
2017,06,23,00,05,12.50
2017,06,23,00,06,12.50
2017,06,23,00,07,12.40
2017,06,23,00,08,12.40
2017,06,23,00,09,12.40
2017,06,23,00,10,12.40
2017,06,23,00,11,12.40
2017,06,23,00,12,12.40
2017,06,23,00,13,12.40
2017,06,23,00,14,12.40
2017,06,23,00,15,12.40
2017,06,23,00,16,12.40
2017,06,23,00,17,12.40
2017,06,23,00,18,12.40
2017,06,23,00,19,12.40
2017,06,23,00,20,12.40
2017,06,23,00,21,12.40
2017,06,23,00,22,12.40
2017,06,23,00,23,12.30
2017,06,23,00,24,12.30
2017,06,23,00,25,12.30
2017,06,23,00,26,12.30
2017,06,23,00,27,12.30
2017,06,23,00,28,12.30
2017,06,23,00,29,12.30
2017,06,23,00,30,12.30
2017,06,23,00,31,12.30
2017,06,23,00,32,12.30
2017,06,23,00,33,12.30
2017,06,23,00,34,12.30
2017,06,23,00,35,12.30
2017,06,23,00,36,12.30
2017,06,23,00,37,12.30
2017,06,23,00,38,12.30
2017,06,23,00,39,12.30
2017,06,23,00,40,12.30
2017,06,23,00,41,12.20
2017,06,23,00,42,12.20
2017,06,23,00,43,12.20
2017,06,23,00,44,12.20
2017,06,23,00,45,12.20
2017,06,23,00,46,12.20
2017,06,23,00,47,12.20
2017,06,23,00,48,12.20
2017,06,23,00,49,12.20
2017,06,23,00,50,12.20
2017,06,23,00,51,12.20
2017,06,23,00,52,12.20
2017,06,23,00,53,12.20
2017,06,23,00,54,12.20
2017,06,23,00,55,12.20
2017,06,23,00,56,12.20
2017,06,23,00,57,12.20
2017,06,23,00,58,12.20
2017,06,23,00,59,12.20
2017,06,23,01,00,12.20
2017,06,23,01,01,12.20
2017,06,23,01,02,12.20
2017,06,23,01,03,12.20
2017,06,23,01,04,12.20
2017,06,23,01,05,12.20
2017,06,23,01,06,12.20
2017,06,23,01,07,12.30
2017,06,23,01,08,12.30
2017,06,23,01,09,12.30
2017,06,23,01,10,12.20
2017,06,23,01,11,12.20
2017,06,23,01,12,12.20
2017,06,23,01,13,12.20
2017,06,23,01,14,12.20
2017,06,23,01,15,12.20
2017,06,23,01,16,12.20
2017,06,23,01,17,12.20
2017,06,23,01,18,12.20
2017,06,23,01,19,12.20
2017,06,23,01,20,12.20
2017,06,23,01,21,12.10
2017,06,23,01,22,12.10
2017,06,23,01,23,12.10
2017,06,23,01,24,12.10
2017,06,23,01,25,12.10
2017,06,23,01,26,12.10
2017,06,23,01,27,12.10
2017,06,23,01,28,12.00
2017,06,23,01,29,12.00
2017,06,23,01,30,12.00
2017,06,23,01,31,12.00
2017,06,23,01,32,12.00
2017,06,23,01,33,12.00
2017,06,23,01,34,12.00
2017,06,23,01,35,12.00
2017,06,23,01,36,11.90
2017,06,23,01,37,11.90
2017,06,23,01,38,11.90
2017,06,23,01,39,11.90
2017,06,23,01,40,11.90
2017,06,23,01,41,11.90
2017,06,23,01,42,11.90
2017,06,23,01,43,11.90
2017,06,23,01,44,11.90
2017,06,23,01,45,11.90
2017,06,23,01,46,11.90
2017,06,23,01,47,11.90
2017,06,23,01,48,11.90
2017,06,23,01,49,11.90
2017,06,23,01,50,11.90
2017,06,23,01,51,11.90
2017,06,23,01,52,11.90
2017,06,23,01,53,11.80
2017,06,23,01,54,11.80
2017,06,23,01,55,11.80
2017,06,23,01,56,11.80
2017,06,23,01,57,11.80
2017,06,23,01,58,11.80
2017,06,23,01,59,11.70
2017,06,23,02,00,11.70
2017,06,23,02,01,11.70
2017,06,23,02,02,11.70
2017,06,23,02,03,11.70
2017,06,23,02,04,11.70
2017,06,23,02,05,11.70
2017,06,23,02,06,11.60
2017,06,23,02,07,11.60
2017,06,23,02,08,11.60
2017,06,23,02,09,11.60
2017,06,23,02,10,11.60
2017,06,23,02,11,11.60
2017,06,23,02,12,11.60
2017,06,23,02,13,11.60
2017,06,23,02,14,11.50
2017,06,23,02,15,11.50
2017,06,23,02,16,11.50
2017,06,23,02,17,11.50
2017,06,23,02,18,11.40
2017,06,23,02,19,11.40
2017,06,23,02,20,11.40
2017,06,23,02,21,11.40
2017,06,23,02,22,11.40
2017,06,23,02,23,11.40
2017,06,23,02,24,11.40
2017,06,23,02,25,11.30
2017,06,23,02,26,11.30
2017,06,23,02,27,11.30
2017,06,23,02,28,11.30
2017,06,23,02,29,11.30
2017,06,23,02,30,11.30
2017,06,23,02,31,11.30
2017,06,23,02,32,11.30
2017,06,23,02,33,11.30
2017,06,23,02,34,11.30
2017,06,23,02,35,11.20
2017,06,23,02,36,11.20
2017,06,23,02,37,11.20
2017,06,23,02,38,11.20
2017,06,23,02,39,11.20
2017,06,23,02,40,11.20
2017,06,23,02,41,11.20
2017,06,23,02,42,11.20
2017,06,23,02,43,11.20
2017,06,23,02,44,11.20
2017,06,23,02,45,11.20
2017,06,23,02,46,11.20
2017,06,23,02,47,11.20
2017,06,23,02,48,11.20
2017,06,23,02,49,11.20
2017,06,23,02,50,11.20
2017,06,23,02,51,11.20
2017,06,23,02,52,11.20
2017,06,23,02,53,11.20
2017,06,23,02,54,11.20
2017,06,23,02,55,11.20
2017,06,23,02,56,11.20
2017,06,23,02,57,11.10
2017,06,23,02,58,11.10
2017,06,23,02,59,11.10
2017,06,23,03,00,11.10
2017,06,23,03,01,11.10
2017,06,23,03,02,11.00
2017,06,23,03,03,11.00
2017,06,23,03,04,11.00
2017,06,23,03,05,10.90
2017,06,23,03,06,10.90
2017,06,23,03,07,10.90
2017,06,23,03,08,10.90
2017,06,23,03,09,10.90
2017,06,23,03,10,10.90
2017,06,23,03,11,10.90
2017,06,23,03,12,10.80
2017,06,23,03,13,10.80
2017,06,23,03,14,10.80
2017,06,23,03,15,10.80
2017,06,23,03,16,10.80
2017,06,23,03,17,10.80
2017,06,23,03,18,10.80
2017,06,23,03,19,10.80
2017,06,23,03,20,10.80
2017,06,23,03,21,10.70
2017,06,23,03,22,10.70
2017,06,23,03,23,10.70
2017,06,23,03,24,10.70
2017,06,23,03,25,10.70
2017,06,23,03,26,10.70
2017,06,23,03,27,10.70
2017,06,23,03,28,10.70
2017,06,23,03,29,10.70
2017,06,23,03,30,10.70
2017,06,23,03,31,10.70
2017,06,23,03,32,10.70
2017,06,23,03,33,10.70
2017,06,23,03,34,10.70
2017,06,23,03,35,10.70
2017,06,23,03,36,10.70
2017,06,23,03,37,10.70
2017,06,23,03,38,10.70
2017,06,23,03,39,10.70
2017,06,23,03,40,10.70
2017,06,23,03,41,10.70
2017,06,23,03,42,10.70
2017,06,23,03,43,10.60
2017,06,23,03,44,10.70
2017,06,23,03,45,10.70
2017,06,23,03,46,10.70
2017,06,23,03,47,10.70
2017,06,23,03,48,10.60
2017,06,23,03,49,10.70
2017,06,23,03,50,10.70
2017,06,23,03,51,10.70
2017,06,23,03,52,10.70
2017,06,23,03,53,10.70
2017,06,23,03,54,10.70
2017,06,23,03,55,10.70
2017,06,23,03,56,10.70
2017,06,23,03,57,10.70
2017,06,23,03,58,10.70
2017,06,23,03,59,10.70
2017,06,23,04,00,10.70
2017,06,23,04,01,10.70
2017,06,23,04,02,10.70
2017,06,23,04,03,10.70
2017,06,23,04,04,10.70
2017,06,23,04,05,10.70
2017,06,23,04,06,10.70
2017,06,23,04,07,10.70
2017,06,23,04,08,10.70
2017,06,23,04,09,10.70
2017,06,23,04,10,10.70
2017,06,23,04,11,10.70
2017,06,23,04,12,10.70
2017,06,23,04,13,10.70
2017,06,23,04,14,10.70
2017,06,23,04,15,10.70
2017,06,23,04,16,10.70
2017,06,23,04,17,10.60
2017,06,23,04,18,10.60
2017,06,23,04,19,10.60
2017,06,23,04,20,10.60
2017,06,23,04,21,10.60
2017,06,23,04,22,10.60
2017,06,23,04,23,10.60
2017,06,23,04,24,10.60
2017,06,23,04,25,10.50
2017,06,23,04,26,10.50
2017,06,23,04,27,10.50
2017,06,23,04,28,10.50
2017,06,23,04,29,10.50
2017,06,23,04,30,10.50
2017,06,23,04,31,10.40
2017,06,23,04,32,10.40
2017,06,23,04,33,10.40
2017,06,23,04,34,10.40
2017,06,23,04,35,10.40
2017,06,23,04,36,10.40
2017,06,23,04,37,10.40
2017,06,23,04,38,10.40
2017,06,23,04,39,10.40
2017,06,23,04,40,10.40
2017,06,23,04,41,10.40
2017,06,23,04,42,10.40
2017,06,23,04,43,10.40
2017,06,23,04,44,10.40
2017,06,23,04,45,10.40
2017,06,23,04,46,10.40
2017,06,23,04,47,10.40
2017,06,23,04,48,10.40
2017,06,23,04,49,10.40
2017,06,23,04,50,10.40
2017,06,23,04,51,10.40
2017,06,23,04,52,10.40
2017,06,23,04,53,10.40
2017,06,23,04,54,10.40
2017,06,23,04,55,10.40
2017,06,23,04,56,10.40
2017,06,23,04,57,10.40
2017,06,23,04,58,10.40
2017,06,23,04,59,10.40
2017,06,23,05,00,10.40
2017,06,23,05,01,10.40
2017,06,23,05,02,10.40
2017,06,23,05,03,10.40
2017,06,23,05,04,10.40
2017,06,23,05,05,10.40
2017,06,23,05,06,10.40
2017,06,23,05,07,10.40
2017,06,23,05,08,10.40
2017,06,23,05,09,10.40
2017,06,23,05,10,10.40
2017,06,23,05,11,10.40
2017,06,23,05,12,10.40
2017,06,23,05,13,10.40
2017,06,23,05,14,10.40
2017,06,23,05,15,10.40
2017,06,23,05,16,10.40
2017,06,23,05,17,10.40
2017,06,23,05,18,10.40
2017,06,23,05,19,10.40
2017,06,23,05,20,10.40
2017,06,23,05,21,10.40
2017,06,23,05,22,10.40
2017,06,23,05,23,10.40
2017,06,23,05,24,10.40
2017,06,23,05,25,10.40
2017,06,23,05,26,10.40
2017,06,23,05,27,10.30
2017,06,23,05,28,10.30
2017,06,23,05,29,10.30
2017,06,23,05,30,10.30
2017,06,23,05,31,10.30
2017,06,23,05,32,10.30
2017,06,23,05,33,10.30
2017,06,23,05,34,10.30
2017,06,23,05,35,10.30
2017,06,23,05,36,10.20
2017,06,23,05,37,10.20
2017,06,23,05,38,10.20
2017,06,23,05,39,10.20
2017,06,23,05,40,10.20
2017,06,23,05,41,10.20
2017,06,23,05,42,10.20
2017,06,23,05,43,10.20
2017,06,23,05,44,10.20
2017,06,23,05,45,10.10
2017,06,23,05,46,10.10
2017,06,23,05,47,10.10
2017,06,23,05,48,10.10
2017,06,23,05,49,10.10
2017,06,23,05,50,10.10
2017,06,23,05,51,10.10
2017,06,23,05,52,10.20
2017,06,23,05,53,10.20
2017,06,23,05,54,10.20
2017,06,23,05,55,10.20
2017,06,23,05,56,10.20
2017,06,23,05,57,10.30
2017,06,23,05,58,10.30
2017,06,23,05,59,10.40
2017,06,23,06,00,10.40
2017,06,23,06,01,10.50
2017,06,23,06,02,10.50
2017,06,23,06,03,10.60
2017,06,23,06,04,10.60
2017,06,23,06,05,10.70
2017,06,23,06,06,10.70
2017,06,23,06,07,10.80
2017,06,23,06,08,10.80
2017,06,23,06,09,10.80
2017,06,23,06,10,10.90
2017,06,23,06,11,10.90
2017,06,23,06,12,11.00
2017,06,23,06,13,11.00
2017,06,23,06,14,11.10
2017,06,23,06,15,11.10
2017,06,23,06,16,11.20
2017,06,23,06,17,11.20
2017,06,23,06,18,11.20
2017,06,23,06,19,11.30
2017,06,23,06,20,11.40
2017,06,23,06,21,11.40
2017,06,23,06,22,11.50
2017,06,23,06,23,11.50
2017,06,23,06,24,11.60
2017,06,23,06,25,11.70
2017,06,23,06,26,11.70
2017,06,23,06,27,11.80
2017,06,23,06,28,11.80
2017,06,23,06,29,11.90
2017,06,23,06,30,12.00
2017,06,23,06,31,12.10
2017,06,23,06,32,12.20
2017,06,23,06,33,12.30
2017,06,23,06,34,12.30
2017,06,23,06,35,12.40
2017,06,23,06,36,12.50
2017,06,23,06,37,12.60
2017,06,23,06,38,12.60
2017,06,23,06,39,12.60
2017,06,23,06,40,12.70
2017,06,23,06,41,12.70
2017,06,23,06,42,12.70
2017,06,23,06,43,12.70
2017,06,23,06,44,12.70
2017,06,23,06,45,12.70
2017,06,23,06,46,12.80
2017,06,23,06,47,12.80
2017,06,23,06,48,12.80
2017,06,23,06,49,12.80
2017,06,23,06,50,12.80
2017,06,23,06,51,12.80
2017,06,23,06,52,12.80
2017,06,23,06,53,12.80
2017,06,23,06,54,12.90
2017,06,23,06,55,12.90
2017,06,23,06,56,12.90
2017,06,23,06,57,13.00
2017,06,23,06,58,13.00
2017,06,23,06,59,13.10
2017,06,23,07,00,13.10
2017,06,23,07,01,13.20
2017,06,23,07,02,13.30
2017,06,23,07,03,13.30
2017,06,23,07,04,13.40
2017,06,23,07,05,13.50
2017,06,23,07,06,13.60
2017,06,23,07,07,13.70
2017,06,23,07,08,13.70
2017,06,23,07,09,13.80
2017,06,23,07,10,13.90
2017,06,23,07,11,14.00
2017,06,23,07,12,14.10
2017,06,23,07,13,14.20
2017,06,23,07,14,14.30
2017,06,23,07,15,14.40
2017,06,23,07,16,14.50
2017,06,23,07,17,14.50
2017,06,23,07,18,14.60
2017,06,23,07,19,14.70
2017,06,23,07,20,14.80
2017,06,23,07,21,14.80
2017,06,23,07,22,14.80
2017,06,23,07,23,14.90
2017,06,23,07,24,14.90
2017,06,23,07,25,15.00
2017,06,23,07,26,15.00
2017,06,23,07,27,15.10
2017,06,23,07,28,15.20
2017,06,23,07,29,15.20
2017,06,23,07,30,15.20
2017,06,23,07,31,15.30
2017,06,23,07,32,15.40
2017,06,23,07,33,15.40
2017,06,23,07,34,15.50
2017,06,23,07,35,15.60
2017,06,23,07,36,15.70
2017,06,23,07,37,15.80
2017,06,23,07,38,15.90
2017,06,23,07,39,15.90
2017,06,23,07,40,16.10
2017,06,23,07,41,16.20
2017,06,23,07,42,16.30
2017,06,23,07,43,16.40
2017,06,23,07,44,16.40
2017,06,23,07,45,16.50
2017,06,23,07,46,16.60
2017,06,23,07,47,16.70
2017,06,23,07,48,16.80
2017,06,23,07,49,16.80
2017,06,23,07,50,16.90
2017,06,23,07,51,16.90
2017,06,23,07,52,16.90
2017,06,23,07,53,17.00
2017,06,23,07,54,17.00
2017,06,23,07,55,17.10
2017,06,23,07,56,17.10
2017,06,23,07,57,17.10
2017,06,23,07,58,17.10
2017,06,23,07,59,17.10
2017,06,23,08,00,17.10
2017,06,23,08,01,17.20
2017,06,23,08,02,17.20
2017,06,23,08,03,17.20
2017,06,23,08,04,17.30
2017,06,23,08,05,17.30
2017,06,23,08,06,17.40
2017,06,23,08,07,17.40
2017,06,23,08,08,17.50
2017,06,23,08,09,17.50
2017,06,23,08,10,17.60
2017,06,23,08,11,17.60
2017,06,23,08,12,17.60
2017,06,23,08,13,17.70
2017,06,23,08,14,17.70
2017,06,23,08,15,17.70
2017,06,23,08,16,17.70
2017,06,23,08,17,17.70
2017,06,23,08,18,17.80
2017,06,23,08,19,17.80
2017,06,23,08,20,17.80
2017,06,23,08,21,17.80
2017,06,23,08,22,17.90
2017,06,23,08,23,17.90
2017,06,23,08,24,17.90
2017,06,23,08,25,17.90
2017,06,23,08,26,18.00
2017,06,23,08,27,18.00
2017,06,23,08,28,18.00
2017,06,23,08,29,18.10
2017,06,23,08,30,18.10
2017,06,23,08,31,18.10
2017,06,23,08,32,18.20
2017,06,23,08,33,18.20
2017,06,23,08,34,18.20
2017,06,23,08,35,18.30
2017,06,23,08,36,18.30
2017,06,23,08,37,18.30
2017,06,23,08,38,18.30
2017,06,23,08,39,18.30
2017,06,23,08,40,18.30
2017,06,23,08,41,18.30
2017,06,23,08,42,18.40
2017,06,23,08,43,18.40
2017,06,23,08,44,18.40
2017,06,23,08,45,18.40
2017,06,23,08,46,18.50
2017,06,23,08,47,18.50
2017,06,23,08,48,18.60
2017,06,23,08,49,18.60
2017,06,23,08,50,18.60
2017,06,23,08,51,18.60
2017,06,23,08,52,18.70
2017,06,23,08,53,18.70
2017,06,23,08,54,18.80
2017,06,23,08,55,18.80
2017,06,23,08,56,18.80
2017,06,23,08,57,18.80
2017,06,23,08,58,18.80
2017,06,23,08,59,18.80
2017,06,23,09,00,18.80
2017,06,23,09,01,18.80
2017,06,23,09,02,18.90
2017,06,23,09,03,18.80
2017,06,23,09,04,18.80
2017,06,23,09,05,18.80
2017,06,23,09,06,18.80
2017,06,23,09,07,18.90
2017,06,23,09,08,18.90
2017,06,23,09,09,18.90
2017,06,23,09,10,18.90
2017,06,23,09,11,19.00
2017,06,23,09,12,19.00
2017,06,23,09,13,19.10
2017,06,23,09,14,19.10
2017,06,23,09,15,19.10
2017,06,23,09,16,19.10
2017,06,23,09,17,19.20
2017,06,23,09,18,19.20
2017,06,23,09,19,19.20
2017,06,23,09,20,19.30
2017,06,23,09,21,19.30
2017,06,23,09,22,19.30
2017,06,23,09,23,19.30
2017,06,23,09,24,19.40
2017,06,23,09,25,19.40
2017,06,23,09,26,19.40
2017,06,23,09,27,19.50
2017,06,23,09,28,19.50
2017,06,23,09,29,19.60
2017,06,23,09,30,19.60
2017,06,23,09,31,19.60
2017,06,23,09,32,19.60
2017,06,23,09,33,19.60
2017,06,23,09,34,19.70
2017,06,23,09,35,19.70
2017,06,23,09,36,19.70
2017,06,23,09,37,19.70
2017,06,23,09,38,19.80
2017,06,23,09,39,19.80
2017,06,23,09,40,19.90
2017,06,23,09,41,19.90
2017,06,23,09,42,19.90
2017,06,23,09,43,19.90
2017,06,23,09,44,19.90
2017,06,23,09,45,19.90
2017,06,23,09,46,19.90
2017,06,23,09,47,19.90
2017,06,23,09,48,19.90
2017,06,23,09,49,19.90
2017,06,23,09,50,19.90
2017,06,23,09,51,19.90
2017,06,23,09,52,20.00
2017,06,23,09,53,20.00
2017,06,23,09,54,20.00
2017,06,23,09,55,20.00
2017,06,23,09,56,20.00
2017,06,23,09,57,20.00
2017,06,23,09,58,20.00
2017,06,23,09,59,20.10
2017,06,23,10,00,20.10
2017,06,23,10,01,20.10
2017,06,23,10,02,20.10
2017,06,23,10,03,20.20
2017,06,23,10,04,20.20
2017,06,23,10,05,20.20
2017,06,23,10,06,20.30
2017,06,23,10,07,20.30
2017,06,23,10,08,20.40
2017,06,23,10,09,20.40
2017,06,23,10,10,20.40
2017,06,23,10,11,20.50
2017,06,23,10,12,20.50
2017,06,23,10,13,20.50
2017,06,23,10,14,20.60
2017,06,23,10,15,20.60
2017,06,23,10,16,20.60
2017,06,23,10,17,20.70
2017,06,23,10,18,20.70
2017,06,23,10,19,20.70
2017,06,23,10,20,20.80
2017,06,23,10,21,20.80
2017,06,23,10,22,20.80
2017,06,23,10,23,20.80
2017,06,23,10,24,20.80
2017,06,23,10,25,20.80
2017,06,23,10,26,20.80
2017,06,23,10,27,20.80
2017,06,23,10,28,20.90
2017,06,23,10,29,20.90
2017,06,23,10,30,20.90
2017,06,23,10,31,20.90
2017,06,23,10,32,20.90
2017,06,23,10,33,20.90
2017,06,23,10,34,20.90
2017,06,23,10,35,21.00
2017,06,23,10,36,21.00
2017,06,23,10,37,21.00
2017,06,23,10,38,21.00
2017,06,23,10,39,20.90
2017,06,23,10,40,21.00
2017,06,23,10,41,21.00
2017,06,23,10,42,21.00
2017,06,23,10,43,21.10
2017,06,23,10,44,21.10
2017,06,23,10,45,21.10
2017,06,23,10,46,21.20
2017,06,23,10,47,21.20
2017,06,23,10,48,21.20
2017,06,23,10,49,21.30
2017,06,23,10,50,21.30
2017,06,23,10,51,21.30
2017,06,23,10,52,21.30
2017,06,23,10,53,21.30
2017,06,23,10,54,21.30
2017,06,23,10,55,21.30
2017,06,23,10,56,21.40
2017,06,23,10,57,21.40
2017,06,23,10,58,21.40
2017,06,23,10,59,21.40
2017,06,23,11,00,21.50
2017,06,23,11,01,21.50
2017,06,23,11,02,21.50
2017,06,23,11,03,21.60
2017,06,23,11,04,21.60
2017,06,23,11,05,21.70
2017,06,23,11,06,21.70
2017,06,23,11,07,21.70
2017,06,23,11,08,21.80
2017,06,23,11,09,21.80
2017,06,23,11,10,21.80
2017,06,23,11,11,21.80
2017,06,23,11,12,21.90
2017,06,23,11,13,21.90
2017,06,23,11,14,21.90
2017,06,23,11,15,21.90
2017,06,23,11,16,21.90
2017,06,23,11,17,21.90
2017,06,23,11,18,21.90
2017,06,23,11,19,22.00
2017,06,23,11,20,22.00
2017,06,23,11,21,22.10
2017,06,23,11,22,22.10
2017,06,23,11,23,22.20
2017,06,23,11,24,22.20
2017,06,23,11,25,22.30
2017,06,23,11,26,22.40
2017,06,23,11,27,22.50
2017,06,23,11,28,22.50
2017,06,23,11,29,22.60
2017,06,23,11,30,22.60
2017,06,23,11,31,22.60
2017,06,23,11,32,22.60
2017,06,23,11,33,22.60
2017,06,23,11,34,22.70
2017,06,23,11,35,22.70
2017,06,23,11,36,22.70
2017,06,23,11,37,22.70
2017,06,23,11,38,22.70
2017,06,23,11,39,22.70
2017,06,23,11,40,22.70
2017,06,23,11,41,22.70
2017,06,23,11,42,22.70
2017,06,23,11,43,22.70
2017,06,23,11,44,22.80
2017,06,23,11,45,22.80
2017,06,23,11,46,22.80
2017,06,23,11,47,22.80
2017,06,23,11,48,22.80
2017,06,23,11,49,22.80
2017,06,23,11,50,22.80
2017,06,23,11,51,22.80
2017,06,23,11,52,22.80
2017,06,23,11,53,22.90
2017,06,23,11,54,22.90
2017,06,23,11,55,22.90
2017,06,23,11,56,23.00
2017,06,23,11,57,23.00
2017,06,23,11,58,23.10
2017,06,23,11,59,23.10
2017,06,23,12,00,23.10
2017,06,23,12,01,23.10
2017,06,23,12,02,23.10
2017,06,23,12,03,23.20
2017,06,23,12,04,23.20
2017,06,23,12,05,23.20
2017,06,23,12,06,23.20
2017,06,23,12,07,23.20
2017,06,23,12,08,23.30
2017,06,23,12,09,23.30
2017,06,23,12,10,23.30
2017,06,23,12,11,23.30
2017,06,23,12,12,23.20
2017,06,23,12,13,23.20
2017,06,23,12,14,23.20
2017,06,23,12,15,23.20
2017,06,23,12,16,23.20
2017,06,23,12,17,23.20
2017,06,23,12,18,23.20
2017,06,23,12,19,23.20
2017,06,23,12,20,23.20
2017,06,23,12,21,23.20
2017,06,23,12,22,23.20
2017,06,23,12,23,23.20
2017,06,23,12,24,23.20
2017,06,23,12,25,23.20
2017,06,23,12,26,23.20
2017,06,23,12,27,23.20
2017,06,23,12,28,23.20
2017,06,23,12,29,23.20
2017,06,23,12,30,23.30
2017,06,23,12,31,23.30
2017,06,23,12,32,23.40
2017,06,23,12,33,23.40
2017,06,23,12,34,23.40
2017,06,23,12,35,23.40
2017,06,23,12,36,23.40
2017,06,23,12,37,23.40
2017,06,23,12,38,23.40
2017,06,23,12,39,23.40
2017,06,23,12,40,23.40
2017,06,23,12,41,23.40
2017,06,23,12,42,23.40
2017,06,23,12,43,23.40
2017,06,23,12,44,23.40
2017,06,23,12,45,23.40
2017,06,23,12,46,23.40
2017,06,23,12,47,23.40
2017,06,23,12,48,23.40
2017,06,23,12,49,23.40
2017,06,23,12,50,23.30
2017,06,23,12,51,23.30
2017,06,23,12,52,23.30
2017,06,23,12,53,23.30
2017,06,23,12,54,23.30
2017,06,23,12,55,23.40
2017,06,23,12,56,23.40
2017,06,23,12,57,23.50
2017,06,23,12,58,23.50
2017,06,23,12,59,23.60
2017,06,23,13,00,23.70
2017,06,23,13,01,23.70
2017,06,23,13,02,23.70
2017,06,23,13,03,23.80
2017,06,23,13,04,23.80
2017,06,23,13,05,23.80
2017,06,23,13,06,23.80
2017,06,23,13,07,23.90
2017,06,23,13,08,23.90
2017,06,23,13,09,23.90
2017,06,23,13,10,23.80
2017,06,23,13,11,23.80
2017,06,23,13,12,23.80
2017,06,23,13,13,23.90
2017,06,23,13,14,23.90
2017,06,23,13,15,23.90
2017,06,23,13,16,23.90
2017,06,23,13,17,24.00
2017,06,23,13,18,24.00
2017,06,23,13,19,24.10
2017,06,23,13,20,24.10
2017,06,23,13,21,24.10
2017,06,23,13,22,24.10
2017,06,23,13,23,24.10
2017,06,23,13,24,24.20
2017,06,23,13,25,24.20
2017,06,23,13,26,24.20
2017,06,23,13,27,24.20
2017,06,23,13,28,24.20
2017,06,23,13,29,24.30
2017,06,23,13,30,24.30
2017,06,23,13,31,24.40
2017,06,23,13,32,24.40
2017,06,23,13,33,24.50
2017,06,23,13,34,24.50
2017,06,23,13,35,24.50
2017,06,23,13,36,24.50
2017,06,23,13,37,24.40
2017,06,23,13,38,24.40
2017,06,23,13,39,24.50
2017,06,23,13,40,24.50
2017,06,23,13,41,24.60
2017,06,23,13,42,24.70
2017,06,23,13,43,24.70
2017,06,23,13,44,24.80
2017,06,23,13,45,24.80
2017,06,23,13,46,24.90
2017,06,23,13,47,24.90
2017,06,23,13,48,24.80
2017,06,23,13,49,24.80
2017,06,23,13,50,24.80
2017,06,23,13,51,24.80
2017,06,23,13,52,24.80
2017,06,23,13,53,24.80
2017,06,23,13,54,24.80
2017,06,23,13,55,24.90
2017,06,23,13,56,24.90
2017,06,23,13,57,24.90
2017,06,23,13,58,25.00
2017,06,23,13,59,25.00
2017,06,23,14,00,25.10
2017,06,23,14,01,25.10
2017,06,23,14,02,25.20
2017,06,23,14,03,25.20
2017,06,23,14,04,25.30
2017,06,23,14,05,25.30
2017,06,23,14,06,25.30
2017,06,23,14,07,25.30
2017,06,23,14,08,25.40
2017,06,23,14,09,25.40
2017,06,23,14,10,25.40
2017,06,23,14,11,25.50
2017,06,23,14,12,25.60
2017,06,23,14,13,25.60
2017,06,23,14,14,25.70
2017,06,23,14,15,25.80
2017,06,23,14,16,25.90
2017,06,23,14,17,25.90
2017,06,23,14,18,25.90
2017,06,23,14,19,25.90
2017,06,23,14,20,25.90
2017,06,23,14,21,25.90
2017,06,23,14,22,25.90
2017,06,23,14,23,25.90
2017,06,23,14,24,25.90
2017,06,23,14,25,26.00
2017,06,23,14,26,26.00
2017,06,23,14,27,26.10
2017,06,23,14,28,26.10
2017,06,23,14,29,26.10
2017,06,23,14,30,26.10
2017,06,23,14,31,26.10
2017,06,23,14,32,26.10
2017,06,23,14,33,26.00
2017,06,23,14,34,26.00
2017,06,23,14,35,26.00
2017,06,23,14,36,26.10
2017,06,23,14,37,26.10
2017,06,23,14,38,26.10
2017,06,23,14,39,26.10
2017,06,23,14,40,26.10
2017,06,23,14,41,26.20
2017,06,23,14,42,26.20
2017,06,23,14,43,26.20
2017,06,23,14,44,26.30
2017,06,23,14,45,26.30
2017,06,23,14,46,26.30
2017,06,23,14,47,26.30
2017,06,23,14,48,26.30
2017,06,23,14,49,26.30
2017,06,23,14,50,26.30
2017,06,23,14,51,26.30
2017,06,23,14,52,26.30
2017,06,23,14,53,26.20
2017,06,23,14,54,26.20
2017,06,23,14,55,26.10
2017,06,23,14,56,26.00
2017,06,23,14,57,25.90
2017,06,23,14,58,25.80
2017,06,23,14,59,25.80
2017,06,23,15,00,25.80
2017,06,23,15,01,25.80
2017,06,23,15,02,25.80
2017,06,23,15,03,25.80
2017,06,23,15,04,25.80
2017,06,23,15,05,25.80
2017,06,23,15,06,25.90
2017,06,23,15,07,25.90
2017,06,23,15,08,26.00
2017,06,23,15,09,26.00
2017,06,23,15,10,26.10
2017,06,23,15,11,26.10
2017,06,23,15,12,26.20
2017,06,23,15,13,26.30
2017,06,23,15,14,26.30
2017,06,23,15,15,26.40
2017,06,23,15,16,26.40
2017,06,23,15,17,26.40
2017,06,23,15,18,26.40
2017,06,23,15,19,26.40
2017,06,23,15,20,26.40
2017,06,23,15,21,26.40
2017,06,23,15,22,26.40
2017,06,23,15,23,26.50
2017,06,23,15,24,26.50
2017,06,23,15,25,26.50
2017,06,23,15,26,26.60
2017,06,23,15,27,26.50
2017,06,23,15,28,26.50
2017,06,23,15,29,26.40
2017,06,23,15,30,26.40
2017,06,23,15,31,26.40
2017,06,23,15,32,26.30
2017,06,23,15,33,26.30
2017,06,23,15,34,26.40
2017,06,23,15,35,26.40
2017,06,23,15,36,26.50
2017,06,23,15,37,26.60
2017,06,23,15,38,26.60
2017,06,23,15,39,26.70
2017,06,23,15,40,26.70
2017,06,23,15,41,26.80
2017,06,23,15,42,26.80
2017,06,23,15,43,26.80
2017,06,23,15,44,26.70
2017,06,23,15,45,26.70
2017,06,23,15,46,26.70
2017,06,23,15,47,26.70
2017,06,23,15,48,26.70
2017,06,23,15,49,26.70
2017,06,23,15,50,26.70
2017,06,23,15,51,26.70
2017,06,23,15,52,26.80
2017,06,23,15,53,26.80
2017,06,23,15,54,26.80
2017,06,23,15,55,26.80
2017,06,23,15,56,26.90
2017,06,23,15,57,26.90
2017,06,23,15,58,26.80
2017,06,23,15,59,26.80
2017,06,23,16,00,26.70
2017,06,23,16,01,26.70
2017,06,23,16,02,26.60
2017,06,23,16,03,26.60
2017,06,23,16,04,26.60
2017,06,23,16,05,26.60
2017,06,23,16,06,26.70
2017,06,23,16,07,26.70
2017,06,23,16,08,26.70
2017,06,23,16,09,26.80
2017,06,23,16,10,26.80
2017,06,23,16,11,26.80
2017,06,23,16,12,26.90
2017,06,23,16,13,26.90
2017,06,23,16,14,27.00
2017,06,23,16,15,27.00
2017,06,23,16,16,27.10
2017,06,23,16,17,27.10
2017,06,23,16,18,27.10
2017,06,23,16,19,27.00
2017,06,23,16,20,26.90
2017,06,23,16,21,26.80
2017,06,23,16,22,26.60
2017,06,23,16,23,26.40
2017,06,23,16,24,26.20
2017,06,23,16,25,26.10
2017,06,23,16,26,25.90
2017,06,23,16,27,25.70
2017,06,23,16,28,25.60
2017,06,23,16,29,25.50
2017,06,23,16,30,25.50
2017,06,23,16,31,25.40
2017,06,23,16,32,25.40
2017,06,23,16,33,25.40
2017,06,23,16,34,25.40
2017,06,23,16,35,25.30
2017,06,23,16,36,25.20
2017,06,23,16,37,25.10
2017,06,23,16,38,25.00
2017,06,23,16,39,24.80
2017,06,23,16,40,24.70
2017,06,23,16,41,24.60
2017,06,23,16,42,24.50
2017,06,23,16,43,24.40
2017,06,23,16,44,24.40
2017,06,23,16,45,24.30
2017,06,23,16,46,24.30
2017,06,23,16,47,24.20
2017,06,23,16,48,24.20
2017,06,23,16,49,24.10
2017,06,23,16,50,24.10
2017,06,23,16,51,24.10
2017,06,23,16,52,24.10
2017,06,23,16,53,24.10
2017,06,23,16,54,24.10
2017,06,23,16,55,24.10
2017,06,23,16,56,24.10
2017,06,23,16,57,24.10
2017,06,23,16,58,24.10
2017,06,23,16,59,24.20
2017,06,23,17,00,24.20
2017,06,23,17,01,24.20
2017,06,23,17,02,24.10
2017,06,23,17,03,24.00
2017,06,23,17,04,24.00
2017,06,23,17,05,23.90
2017,06,23,17,06,23.80
2017,06,23,17,07,23.70
2017,06,23,17,08,23.60
2017,06,23,17,09,23.60
2017,06,23,17,10,23.50
2017,06,23,17,11,23.40
2017,06,23,17,12,23.40
2017,06,23,17,13,23.30
2017,06,23,17,14,23.20
2017,06,23,17,15,23.10
2017,06,23,17,16,23.00
2017,06,23,17,17,22.90
2017,06,23,17,18,22.80
2017,06,23,17,19,22.70